Location: Ar Ranvel
(48.3000°N, 4.8833°W)
Time: 22:13:47
(UTC+00:00)

Meteor 2-10 Rocket - Pass Details

Date: 28 October 2021
Orbit: 733 x 885 km, 81.2° (Epoch: 30 November)

Event Time Altitude Azimuth Distance (km) Brightness Sun altitude
Rises 06:08:38 0° 340° (NNW) 3,190 6.4 -9.0°
Reaches altitude 10° 06:11:11 10° 330° (NNW) 2,253 5.6 -8.5°
Maximum altitude 06:15:34 31° 269° (W) 1,268 4.1 -7.8°
Drops below altitude 10° 06:19:56 10° 208° (SSW) 2,237 5.8 -7.1°
Sets 06:22:28 0° 198° (SSW) 3,164 6.6 -6.7°
